ATLAS 5 CENTAUR DEB, 44664

Orbit data source: Space-Track

ATLAS 5 CENTAUR DEB, 44664 is space debris in HEO originally from a launch on Wed, 17 Oct 2018 UTC launched from the Air Force Eastern Test Range (AFETR). Debris objects in space refer to the collection of defunct objects orbiting the Earth. Examples of debris include non-operational satellites, rocket bodies, and fragments generated from explosions, collisions, or faulty payload assembly.

Loading next visibility...
Identifier
44664, 2018-079AA
Orbit
HEO
Last TLE update
10 months ago
Origin
Manufacturer
ULA Decatur
Mission
Spacecraft
Bus & Motor
Unknown
Mass
Unknown
Launch date (UTC)
2018-10-17 (7 years ago)
Launch vehicle
Unknown
Launch site
Air Force Eastern Test Range (AFETR)
Object type
Payload
Rocket body
Debris
Shape & HBR
Unknown
Radar Cross Section
RCS unknown

Expand to show TLE details & history

TLE from 10 months ago
0 ATLAS 5 CENTAUR DEB
1 44664U 18079AA  24190.17350872 -.00000110  00000-0  00000-0 0  9991
2 44664  10.2312 125.1662 5129895 148.4729 256.1913  1.69334433 17227
Epoch: 2024-07-08T04:09Z
Definitive object data (Epoch: 2024-07-08T04:09:51.153Z)
Latitude
0.00001°
Longitude
135.95587°
Altitude
32,616.813 km
Speed
2.653 km/s
True Right ascension
08h 20m 07s
True Declination
0° 00' 00"
Sunlit
Object was in daylight at TLE epoch
Visualization TLE readout
Latitude
-2.9855°
Longitude
91.53204°
Altitude
30,732.062 km
Speed
2.842 km/s
Apparent Right ascension
04h 58m 12s
Apparent Declination
-8° 34' 26"
Sunlit
Object is in daylight
Visualization observer readout
Local Sidereal Time
13:26:25
Azimuth
288.759° WNW
Elevation
-33.552°
Doppler factor
1
Orbital elements
Apogee altitude
38,610.941 km
Perigee altitude
8,103.228 km
Semi-major axis
29,735.221 km
Eccentricity
0.5129895
Inclination
10.2312°
RAAN
125.1662°
Arg. of periapsis
148.4729°
True anomaly
211.44796°
Mean anomaly
256.1913°
Eccentric anomaly
232.78442°
Mean motion
0.42329 °/min
BSTAR
Unknown
Orbital period
850.48 mins
Loading maneuver chart data...
Loading SW <> Apogee altitude chart data...

ATLAS 5 CENTAUR DEB Visibility forecast

Observer location: undefined°, undefined°

Span
Click to sort rows by Start time (UTC) header in descending order
Start Az.
Max El. time (UTC)
Max El. Az.
Max El.
End time (UTC)
End Az.
782 mins2025-05-09 16:15:47.063Z214.336° SW2025-05-10 03:10:47.063Z183.929° SSW38.996°2025-05-10 05:17:47.063Z121.212° SE
|